Location: Unspecified
(0.0000°N, 0.0000°E)
Time: 23:37:33
(UTC+00:00)

Traac - Pass Details

Date: 22 December 2025
Orbit: 951 x 1102 km, 32.4° (Epoch: 19 January)

Event Time Altitude Azimuth Distance (km) Brightness Sun altitude
Exits shadow 03:35:09 77° 149° (SSE) 1,078 8.1 -32.5°
Drops below altitude 10° 03:41:44 10° 127° (SE) 2,909 11.3 -31.0°
Sets 03:44:31 0° 126° (SE) 3,881 12.3 -30.4°
